Theta_e
332 321 310 308 301 296 294 300 307 306 310 322 324 322 319 320 319 306 337 345 353 354 358 361 363 362 361 361 360 359 359 359 359 359 359 360 360 361 362 361 361 358 356 354 355 356 356 355 355
329 316 307 301 296 290 293 300 304 306 314 313 324 324 321 318 331 337 339 347 352 355 357 359 363 362 361 360 359 358 358 358 358 359 360 360 361 361 361 361 360 356 354 353 355 355 355 354 353
316 311 301 297 291 291 294 299 303 307 309 309 317 326 324 325 334 339 344 350 353 354 356 358 362 362 361 360 359 358 358 357 358 358 359 360 361 361 361 361 360 355 353 353 353 354 354 353 354
308 305 301 294 292 295 298 300 303 306 309 310 319 319 327 335 335 344 348 352 352 353 353 360 362 361 360 360 359 358 358 358 358 358 359 359 359 359 360 360 358 357 354 353 353 354 354 354 353
304 299 293 290 293 296 301 304 303 304 306 308 318 316 323 330 346 348 348 351 351 352 353 358 361 361 360 360 359 359 358 358 359 359 359 359 359 359 358 357 357 356 355 353 353 353 354 353 353
298 296 288 288 293 298 300 303 304 304 306 311 316 322 322 341 345 347 349 348 352 351 355 356 361 361 360 359 359 359 358 358 359 359 359 360 359 358 357 356 356 356 356 354 353 353 352 351 351
296 292 288 289 295 297 300 303 301 303 309 311 324 319 322 340 346 347 347 349 351 354 355 356 356 358 360 359 358 358 358 358 358 358 359 359 359 357 356 355 355 356 356 356 354 353 352 351 350
298 294 289 291 292 294 303 303 303 306 310 317 321 322 321 337 346 347 348 349 352 354 353 353 354 355 354 355 359 358 358 358 357 358 358 358 358 357 356 353 354 354 354 355 355 353 352 351 350
299 290 287 291 293 295 303 301 307 312 310 312 325 329 338 344 347 345 345 346 348 351 351 351 352 353 353 353 355 358 357 358 358 357 357 354 351 352 353 352 353 354 353 353 353 353 353 352 351
295 289 290 296 298 298 301 305 305 306 307 308 326 335 339 342 342 340 340 340 343 345 349 348 350 350 353 355 353 352 353 353 351 351 351 348 347 347 350 351 353 354 353 352 352 352 352 351 345
292 289 295 298 301 302 301 300 307 303 303 309 320 330 334 336 337 337 340 341 341 345 346 348 348 349 349 352 350 352 351 350 350 349 348 346 345 346 347 346 346 347 350 346 348 345 344 343 340
291 295 297 299 301 301 301 304 305 308 306 318 321 333 334 333 335 335 335 337 340 342 345 347 346 346 348 351 348 349 350 348 348 349 347 343 342 340 342 341 341 340 342 343 342 341 340 338 338
291 293 296 299 300 297 301 301 302 304 311 318 323 330 332 333 334 336 336 337 338 336 339 343 345 347 347 346 346 348 348 348 347 346 346 344 340 339 339 339 339 339 340 341 342 341 339 338 337
292 294 294 296 297 297 297 297 300 305 310 314 321 323 327 327 331 334 335 335 336 337 338 338 341 341 341 345 343 345 347 347 346 345 346 345 342 339 336 337 338 338 340 342 341 341 340 339 338
291 287 291 295 294 294 297 296 296 307 309 308 318 321 323 326 327 329 334 335 337 338 340 339 339 339 340 341 342 342 343 344 343 344 344 345 343 339 337 336 337 339 341 341 341 341 341 339 342
288 286 282 288 293 295 297 289 301 305 307 307 310 318 322 322 324 324 326 331 337 339 339 340 341 340 339 339 339 339 340 340 341 340 340 343 342 339 336 335 336 340 342 342 341 341 341 341 340
283 280 282 286 292 293 295 289 297 305 306 305 307 311 315 316 320 328 328 328 335 337 339 340 341 340 341 341 340 339 338 339 339 339 338 339 341 341 337 336 338 341 343 343 342 341 340 338 337
280 281 283 285 289 291 291 292 298 302 304 304 305 307 309 311 313 315 323 330 331 334 338 339 341 340 341 343 341 343 342 341 342 339 340 341 341 343 341 341 340 344 344 342 340 339 335 335 334
286 285 284 287 291 290 289 293 297 302 304 302 304 306 306 310 314 316 329 332 333 334 335 336 337 339 340 338 337 339 342 344 342 343 344 344 343 345 343 344 343 344 342 342 340 337 335 333 332
286 284 284 287 290 290 289 291 296 300 302 304 304 304 306 308 312 315 317 330 330 331 333 335 336 338 340 338 338 341 343 346 348 346 346 347 345 344 343 343 343 343 342 339 338 335 335 333 332
285 284 284 286 292 295 291 288 293 299 302 304 304 305 306 307 309 312 315 323 330 329 331 334 335 336 338 335 335 339 344 346 344 347 349 347 347 346 345 343 343 343 342 340 338 337 335 334 334
284 289 289 293 289 284 293 280 289 295 298 301 303 304 305 308 309 310 314 316 329 331 331 330 333 332 334 332 333 333 334 335 341 344 345 349 352 350 347 346 345 344 344 342 339 339 338 335 333
286 292 289 290 288 288 289 286 289 293 294 297 300 303 303 306 310 310 312 316 319 327 329 329 329 330 330 330 331 330 334 340 340 340 341 344 346 347 349 348 346 344 343 343 340 338 337 336 333
293 289 288 286 285 279 285 286 284 289 293 296 298 300 303 304 308 311 314 316 316 322 326 328 327 326 328 329 330 332 336 337 337 337 337 339 342 342 343 345 344 345 343 341 340 340 338 337 332
289 286 276 276 276 277 287 285 286 292 296 297 297 299 301 303 304 309 310 311 309 311 320 324 328 325 328 331 335 336 336 335 334 332 332 330 331 331 331 336 340 340 340 339 338 337 336 336 333
286 283 277 274 275 279 288 282 287 296 300 301 304 304 300 302 303 308 310 310 313 315 318 323 323 328 330 327 326 326 326 326 325 324 323 322 325 326 329 331 332 333 334 335 334 332 331 330 330
286 283 285 281 281 279 283 287 292 300 302 304 303 299 300 302 304 312 320 320 322 323 324 323 322 322 323 323 322 321 321 320 320 321 321 321 322 325 324 325 325 327 328 329 329 327 327 327 327
289 290 281 280 276 276 280 284 285 295 298 301 299 299 306 316 317 316 316 317 317 318 319 319 320 318 319 319 319 318 317 318 318 317 317 318 319 319 320 320 320 321 322 323 324 325 326 326 324
285 284 283 284 281 278 276 281 294 296 298 299 300 309 314 313 312 312 313 315 317 317 316 317 316 314 314 314 313 313 314 312 313 312 312 313 314 314 314 315 316 317 317 318 318 319 322 320 321
287 286 285 280 282 282 281 281 298 299 301 304 309 312 313 312 311 310 312 314 313 313 313 312 311 310 310 311 309 308 306 306 306 307 307 309 309 309 310 311 312 312 313 314 314 315 316 318 317
Wind_Speed
9 7 1 4 4 5 3 5 2 4 6 2 5 3 5 1 5 5 3 7 15 15 12 13 14 16 18 20 19 18 15 15 16 17 17 17 16 15 15 14 13 13 13 12 13 13 13 12 11
4 4 4 2 5 4 6 4 4 2 2 8 2 6 2 4 4 6 6 3 18 16 11 11 15 15 16 19 20 19 17 15 15 16 15 15 14 13 13 12 12 12 12 12 12 12 12 11 9
4 3 3 4 4 7 6 4 1 6 9 4 5 2 3 2 3 9 6 12 14 14 10 10 14 14 16 18 18 19 17 16 15 15 14 13 13 12 11 10 10 11 11 11 12 12 10 9 7
3 5 4 5 7 4 5 5 2 6 5 3 1 9 4 2 4 3 19 14 13 11 9 13 15 14 14 17 17 17 16 15 14 14 14 13 12 10 9 9 9 8 9 10 11 11 10 8 6
4 3 2 3 7 3 4 4 1 4 5 5 2 7 4 4 5 12 17 16 15 10 8 9 14 14 13 15 16 16 16 14 13 13 13 12 12 11 9 8 8 7 8 8 8 8 7 7 6
4 4 2 5 7 5 3 5 2 3 5 8 1 5 2 3 5 8 13 14 14 13 11 7 10 9 13 15 14 14 14 14 13 11 11 11 11 10 9 7 7 7 6 6 6 5 5 4 3
7 5 6 5 10 4 5 4 2 3 4 4 2 2 0 9 8 8 11 11 14 11 9 8 7 8 8 9 13 14 13 12 11 11 10 10 9 9 9 7 6 6 5 5 5 4 3 3 3
6 5 6 6 6 6 4 4 1 3 6 2 3 1 2 4 11 13 13 13 14 13 8 8 10 7 6 6 10 10 12 12 11 9 9 8 8 7 7 6 6 5 5 5 5 4 4 5 4
4 4 6 8 9 4 3 3 1 2 3 4 8 8 5 12 13 14 14 11 11 10 8 6 9 8 7 6 7 8 10 10 11 9 9 7 3 5 5 6 6 6 6 6 6 6 7 6 6
5 5 10 6 5 5 3 1 2 5 8 4 7 10 11 12 9 11 13 12 12 10 9 6 7 8 8 6 6 5 5 3 4 5 5 4 3 3 4 5 7 7 7 7 6 7 7 6 3
5 6 6 6 6 4 2 3 0 2 1 2 5 7 8 13 9 9 7 13 13 13 8 7 7 8 10 8 7 4 3 3 3 5 5 4 3 2 2 2 2 2 5 3 3 2 2 4 4
4 6 6 7 4 3 3 3 2 4 5 5 7 9 9 12 8 8 9 9 12 10 9 9 4 4 3 6 6 7 6 5 5 5 7 5 3 3 3 3 3 3 2 4 3 2 4 4 6
6 4 7 5 7 3 4 2 2 1 4 7 8 6 7 9 10 7 8 7 8 11 9 8 7 6 6 5 4 6 7 6 6 6 6 5 5 5 4 4 3 3 3 3 3 3 4 5 5
7 8 5 7 6 1 4 3 4 3 3 7 8 8 6 7 6 6 4 7 8 10 11 11 10 8 6 5 6 5 4 7 6 6 7 9 6 5 5 4 4 4 4 3 3 4 3 4 3
5 6 6 12 5 4 7 9 7 6 3 7 6 7 9 9 6 8 11 9 10 9 12 14 13 13 12 10 8 6 7 6 6 6 7 7 7 6 5 4 4 5 3 4 3 4 3 4 3
8 1 5 5 11 6 8 11 6 8 10 8 8 6 6 9 11 9 8 7 8 13 15 15 13 14 13 13 9 8 8 7 8 7 6 9 8 9 7 5 5 3 3 3 3 2 2 3 3
4 5 5 2 10 9 11 3 10 9 8 8 8 8 7 6 7 9 10 9 9 7 7 12 11 16 13 12 9 10 11 9 8 7 8 9 8 8 6 3 3 4 3 4 3 2 3 2 3
6 7 4 6 7 11 6 4 1 3 8 11 9 8 8 8 11 7 7 7 11 8 6 4 6 5 6 1 0 3 3 3 1 5 3 7 6 7 3 2 6 4 3 4 3 4 3 2 3
7 9 9 6 5 7 9 7 10 9 6 8 8 8 8 9 8 5 6 5 5 7 8 9 7 5 4 2 2 2 2 3 4 7 5 6 5 5 7 6 5 5 6 7 4 2 3 3 2
4 8 7 3 5 3 5 6 9 9 6 9 12 10 10 5 7 8 7 7 7 7 8 9 11 9 8 6 3 3 3 2 2 3 5 7 8 7 7 8 8 7 5 7 6 4 2 3 4
3 6 6 7 5 1 3 3 5 5 5 5 6 7 5 9 9 8 7 10 9 10 12 12 10 9 7 6 3 1 1 1 1 3 3 4 6 9 11 12 7 6 7 7 6 5 8 4 4
11 8 5 8 6 4 2 5 4 6 8 7 9 8 10 10 7 8 9 8 9 15 11 10 9 7 6 7 4 4 2 2 2 1 1 2 5 8 11 12 12 11 7 6 6 6 6 4 7
6 11 5 3 6 5 1 2 7 1 4 8 11 13 12 15 14 15 13 12 13 8 9 10 8 7 7 6 5 3 1 0 1 3 5 5 3 5 6 6 8 8 6 6 8 6 8 7 3
13 10 6 6 4 1 5 6 6 3 7 4 6 11 14 14 16 16 17 17 11 5 6 4 6 3 6 6 6 5 3 1 3 2 4 4 3 2 3 2 4 2 6 7 8 8 8 8 6
7 15 4 2 1 6 6 5 9 6 7 7 9 12 11 9 12 15 15 13 9 8 8 4 5 4 6 5 4 3 4 6 6 6 3 7 7 6 8 6 4 3 5 4 3 4 4 5 7
11 7 7 8 6 5 6 5 6 4 5 7 11 15 8 9 9 13 13 7 3 1 6 7 8 8 9 10 11 9 10 8 8 7 5 5 4 4 8 7 7 5 4 4 1 2 3 5 4
11 8 7 8 2 6 4 5 5 5 6 9 10 1 7 5 5 6 9 8 8 8 9 10 14 13 12 14 12 10 12 13 8 8 7 4 5 5 6 6 7 8 8 6 3 2 3 3 4
13 9 2 4 5 4 1 2 5 8 12 13 9 5 6 12 13 11 11 13 12 15 14 16 16 17 14 13 10 9 10 9 7 8 7 6 5 7 8 8 7 7 7 7 6 4 3 2 2
9 9 4 7 4 6 4 5 5 6 10 11 3 7 9 13 14 12 12 13 15 14 15 13 16 17 14 13 11 9 2 8 9 8 6 5 5 7 8 8 7 7 7 6 5 5 4 4 4
6 8 6 7 1 3 5 5 2 6 8 3 9 9 9 14 15 15 13 13 13 14 12 15 14 15 14 9 8 6 8 8 9 8 7 7 8 7 8 8 8 9 9 8 6 6 6 6 5
Wind_Direction
310 307 77 39 57 60 270 255 281 281 1 314 276 222 228 224 167 213 17 143 123 138 147 152 153 146 142 132 128 126 123 121 119 119 124 127 130 133 128 128 126 127 127 128 124 121 117 116 118
307 335 39 73 105 114 262 260 196 299 301 299 236 313 256 244 95 98 102 195 139 137 147 149 154 145 140 132 130 128 129 126 123 123 124 124 125 125 124 124 126 128 130 131 129 126 123 123 123
304 64 84 118 140 177 206 213 60 322 302 327 329 153 264 337 65 153 157 144 137 135 142 149 150 144 141 133 130 128 128 127 126 125 125 122 119 119 120 121 126 130 134 136 135 133 127 130 131
19 11 35 113 228 244 197 197 303 328 299 150 240 285 308 186 162 159 135 134 128 126 127 151 147 145 142 134 130 128 128 129 129 127 125 123 119 113 114 121 123 129 138 142 141 139 138 140 140
41 52 113 164 247 201 256 267 312 319 283 276 164 269 245 45 77 122 131 137 132 120 108 144 149 145 142 136 131 129 130 130 129 129 127 127 122 119 120 123 125 136 146 153 149 149 145 146 143
67 100 112 194 250 164 208 234 346 293 286 303 125 318 301 36 83 132 130 130 127 127 125 128 137 137 140 137 132 131 132 134 133 133 131 130 127 127 130 134 136 146 158 163 162 158 150 149 161
131 112 198 187 234 264 178 195 189 249 281 275 236 221 286 48 77 107 106 101 100 94 105 112 100 122 118 132 136 136 133 134 135 138 135 137 140 141 140 142 149 157 172 174 178 177 190 199 228
115 109 170 209 192 250 186 176 78 215 271 356 4 313 356 109 101 91 86 92 100 103 105 129 149 114 107 120 125 133 137 136 133 137 140 147 153 155 149 162 167 176 189 197 196 214 237 250 268
137 107 198 203 175 221 182 128 269 302 302 38 17 14 60 108 101 97 96 94 106 104 89 91 138 131 105 110 133 123 136 129 135 145 152 160 159 174 176 179 192 197 207 210 214 230 241 255 271
152 177 200 193 185 210 202 116 18 38 3 22 77 37 56 78 94 111 123 128 124 126 118 124 130 148 137 119 128 114 138 135 137 148 150 147 180 198 192 200 210 218 217 221 226 242 262 282 280
172 198 173 204 199 240 241 3 316 39 3 321 129 110 73 78 79 92 122 134 139 146 151 156 144 161 161 146 148 147 154 151 149 160 150 157 174 222 236 229 245 233 243 235 242 257 269 271 276
167 204 165 235 187 203 266 328 46 181 189 123 125 136 110 87 78 95 95 114 136 138 140 157 120 143 149 150 158 160 167 165 170 187 174 164 176 198 207 218 228 233 236 236 230 223 251 252 256
192 180 193 196 212 201 302 190 114 46 170 117 123 127 121 115 113 103 113 111 124 127 137 154 151 167 180 173 164 175 180 181 178 189 182 174 182 200 203 219 216 234 230 232 244 238 251 260 263
190 177 192 207 212 227 170 218 170 254 183 142 133 151 144 137 138 140 146 144 147 144 147 153 164 170 181 191 183 182 194 190 187 188 196 190 189 196 203 214 221 234 223 223 233 251 253 268 264
119 108 216 232 170 218 149 258 203 179 189 157 158 148 158 181 190 184 177 168 165 164 156 160 173 173 187 194 199 187 189 198 201 200 188 193 196 199 203 212 226 236 223 225 210 239 259 277 267
154 108 161 244 184 217 158 242 173 178 155 165 172 182 177 180 202 200 223 218 196 173 174 170 176 174 189 196 192 192 178 197 210 199 187 196 202 193 187 216 222 220 226 226 216 202 248 249 257
216 164 159 226 206 185 178 132 180 173 157 182 180 185 200 231 236 212 192 193 197 197 198 181 178 187 196 193 194 211 178 206 233 199 175 175 197 206 192 197 241 215 244 236 208 191 181 220 251
152 117 140 177 203 202 151 168 95 175 170 192 202 195 205 225 241 219 208 219 179 195 183 212 211 210 141 178 8 256 155 152 265 265 197 184 183 196 144 165 237 225 216 247 201 213 189 207 227
142 136 137 216 221 138 207 165 220 239 182 182 209 212 207 222 245 253 159 217 198 185 199 212 207 208 181 126 201 241 169 166 203 225 201 166 169 171 165 202 234 223 214 241 201 160 202 241 225
137 147 179 204 225 128 157 199 226 219 209 189 197 214 217 215 224 250 172 184 212 214 214 225 235 230 216 204 175 174 189 206 178 195 210 181 180 148 207 205 217 213 229 230 197 162 193 234 179
149 139 157 167 121 66 111 291 201 236 224 218 216 207 213 205 214 232 227 206 177 209 215 217 230 225 205 172 149 105 332 53 150 211 208 207 170 175 199 205 193 207 222 237 220 191 202 226 201
181 195 148 130 103 172 74 259 247 210 214 224 229 198 208 211 219 219 224 248 198 221 188 200 210 187 184 176 162 169 189 204 244 180 190 214 211 206 211 202 196 203 209 225 202 197 213 212 237
183 167 177 109 96 112 333 82 276 133 233 229 231 232 215 208 205 209 215 227 233 221 200 205 191 191 153 153 164 167 175 25 326 17 338 318 299 246 243 227 193 190 186 206 212 181 204 208 192
152 125 51 48 82 307 213 137 290 215 215 248 224 223 221 205 208 211 212 219 224 197 239 198 200 147 150 127 125 137 117 23 353 349 329 291 286 84 27 327 229 197 214 203 224 219 212 205 211
133 141 100 41 211 211 181 113 238 252 263 234 268 260 228 209 204 209 208 213 219 199 210 188 148 102 118 137 131 121 86 64 54 41 2 14 9 6 359 342 2 256 290 238 248 245 224 217 214
181 141 145 160 163 174 136 207 238 206 294 270 267 264 214 211 202 208 212 176 209 196 131 115 119 96 89 89 77 70 73 79 73 67 56 50 20 12 15 358 358 359 326 349 248 182 226 259 236
194 193 165 106 53 91 201 280 317 322 318 308 307 282 175 178 131 113 85 67 91 95 83 95 94 84 82 83 83 83 79 72 66 46 42 41 11 12 18 27 22 18 12 1 5 69 297 271 269
180 156 108 5 125 133 301 249 231 338 315 316 329 57 99 107 99 91 88 96 90 87 89 89 90 86 75 74 68 51 62 79 86 68 42 24 5 18 18 14 18 20 16 16 22 28 29 33 309
138 170 69 111 95 140 130 263 218 268 285 300 111 76 106 103 101 94 92 91 96 96 98 97 91 97 96 87 72 62 64 58 59 61 47 37 31 22 24 14 7 11 10 3 5 356 358 6 340
146 162 122 114 165 69 124 281 289 292 293 109 108 88 94 109 111 104 91 95 101 96 96 110 100 82 74 82 113 83 66 58 58 51 41 30 38 29 31 29 25 13 5 357 0 350 340 326 311